Weather History for Hereford, TX

Change the Weather History Date:

Thursday, October 27, 2011

  Actual Average (KAMA) Record (KAMA)
Temperature  
Mean Temperature 34 °F 55 °F  
Max Temperature 37 °F 68 °F 86 °F (1975)
Min Temperature 32 °F 41 °F 22 °F (1997)
Degree Days  
Heating Degree Days 30 11  
Month to date heating degree days 188  
Since 1 July heating degree days 232  
Cooling Degree Days 0 0  
Month to date cooling degree days 25  
Year to date cooling degree days 1395  
Moisture  
Dew Point 32 °F    
Average Humidity 95    
Maximum Humidity 100    
Minimum Humidity 87    
Precipitation  
Precipitation 0.03 in 0.04 in 1.35 in (1998)
Month to date precipitation 1.49  
Year to date precipitation 18.68  
Snow  
Snow 0.00 in 0.00 in 3.10 in (2011)
Month to date snowfall 0.1  
Since 1 July snowfall 0.1  
Since 1 September snowfall 0.1  
Snow Depth -    
Sea Level Pressure  
Sea Level Pressure 30.17 in    
Wind  
Wind Speed 15 mph (North)    
Max Wind Speed 25 mph    
Max Gust Speed 33 mph    
Visibility 6 miles    
Events Rain , Snow , Thunderstorm    
T = Trace of Precipitation, MM = Missing Value Source: NWS Daily Summary

Daily Weather History Graph

Daily Weather History Graph

Search for Another Location

Airport:

Trip Planner

Search our weather history database for the weather conditions in past years. The results will help you decide how hot, cold, wet, or windy it might be!

Date:

Astronomy

Oct. 27, 2011 Rise Set
Actual Time 8:05 AM CDT 7:00 PM CDT
Civil Twilight 7:39 AM CDT 7:26 PM CDT
Nautical Twilight 7:09 AM CDT 7:56 PM CDT
Astronomical Twilight 6:40 AM CDT 8:25 PM CDT
Moon 9:06 AM CDT (10/27) 7:37 PM CDT (10/27)
Length of Visible Light 11h 47m
Length of Day
10h 55m
New Moon, 1% of the Moon is Illuminated
Oct 27
New Moon
Nov 2
First Quarter
Nov 10
Full
Nov 18
Last Quarter
Nov 25
New

Hourly Weather History & Observations

Time (CDT) Temp. Windchill Dew Point Humidity Pressure Visibility Wind Dir Wind Speed Gust Speed Precip Events Conditions
12:15 AM 37.4 °F 26.9 °F 35.6 °F 93% 30.13 in 5.0 mi NNE 20.7 mph 29.9 mph 0.02 in   Overcast
12:35 AM 37.4 °F 25.9 °F 35.6 °F 93% 30.11 in 2.5 mi NNE 25.3 mph 28.8 mph 0.06 in Snow Light Snow
1:15 AM 35.6 °F 24.5 °F 35.6 °F 100% 30.12 in 10.0 mi NNE 20.7 mph 33.4 mph N/A   Light Drizzle
1:35 AM 35.6 °F 24.8 °F 35.6 °F 100% 30.12 in 10.0 mi NNE 19.6 mph - N/A   Overcast
1:55 AM 35.6 °F 24.0 °F 35.6 °F 100% 30.13 in 10.0 mi NNE 23.0 mph 26.5 mph N/A Rain Light Rain
2:15 AM 35.6 °F 24.5 °F 33.8 °F 93% 30.11 in 10.0 mi NNE 20.7 mph 28.8 mph N/A   Drizzle
2:35 AM 35.6 °F 25.2 °F 33.8 °F 93% 30.12 in 10.0 mi NNE 18.4 mph 24.2 mph N/A   Light Drizzle
3:15 AM 33.8 °F 24.3 °F 33.8 °F 100% 30.16 in 10.0 mi North 13.8 mph - N/A   Overcast
3:35 AM 33.8 °F 23.5 °F 32.0 °F 93% 30.16 in 4.0 mi NNE 16.1 mph 20.7 mph 0.02 in   Overcast
3:55 AM 33.8 °F 23.5 °F 32.0 °F 93% 30.13 in 1.5 mi NNE 16.1 mph 23.0 mph 0.02 in Snow Light Snow
4:15 AM 32.0 °F 21.6 °F 32.0 °F 100% 30.12 in 3.0 mi NNE 15.0 mph 20.7 mph N/A Snow Light Snow
4:35 AM 32.0 °F 20.8 °F 32.0 °F 100% 30.13 in 1.8 mi NNE 17.3 mph - N/A Snow Light Snow
4:55 AM 32.0 °F 21.2 °F 32.0 °F 100% 30.11 in 1.2 mi NNE 16.1 mph 23.0 mph 0.01 in Snow Light Snow
5:35 AM 32.0 °F 21.2 °F 32.0 °F 100% 30.12 in 3.0 mi NNE 16.1 mph 19.6 mph N/A Snow Light Snow
5:55 AM 32.0 °F 20.5 °F 32.0 °F 100% 30.13 in 0.8 mi North 18.4 mph 23.0 mph N/A Snow Snow
6:15 AM 32.0 °F 20.1 °F 32.0 °F 100% 30.11 in 2.0 mi NNE 19.6 mph - N/A Snow , Thunderstorm Light Thunderstorms and Snow
6:35 AM 32.0 °F 20.1 °F 32.0 °F 100% 30.11 in 5.0 mi NNE 19.6 mph 23.0 mph N/A Snow Light Snow
6:55 AM 32.0 °F 21.6 °F 32.0 °F 100% 30.12 in 10.0 mi NNE 15.0 mph 21.9 mph N/A   Overcast
7:15 AM 32.0 °F 22.1 °F 32.0 °F 100% 30.14 in 10.0 mi NNE 13.8 mph - N/A   Overcast
7:35 AM 32.0 °F 22.5 °F 32.0 °F 100% 30.15 in 3.0 mi NNE 12.7 mph - N/A Snow Light Snow
7:55 AM 32.0 °F 21.2 °F 32.0 °F 100% 30.14 in 2.0 mi North 16.1 mph - N/A Snow Light Snow
8:15 AM 32.0 °F 21.6 °F 32.0 °F 100% 30.15 in 1.0 mi North 15.0 mph - N/A Snow Light Snow
8:35 AM 32.0 °F 22.5 °F 32.0 °F 100% 30.17 in 0.8 mi North 12.7 mph - N/A Snow Light Snow
8:55 AM 32.0 °F 23.0 °F 32.0 °F 100% 30.19 in 1.2 mi North 11.5 mph - N/A Snow Light Snow
9:15 AM 32.0 °F 21.6 °F 32.0 °F 100% 30.18 in 1.5 mi North 15.0 mph - N/A Snow Light Snow
9:35 AM 32.0 °F 21.2 °F 32.0 °F 100% 30.18 in 0.5 mi North 16.1 mph 23.0 mph N/A Snow Light Snow
9:55 AM 32.0 °F 22.1 °F 32.0 °F 100% 30.19 in 0.8 mi North 13.8 mph - N/A Snow Light Snow
10:15 AM 32.0 °F 21.6 °F 32.0 °F 100% 30.20 in 0.5 mi North 15.0 mph - N/A Snow Snow
10:35 AM 32.0 °F 22.1 °F 32.0 °F 100% 30.21 in 0.5 mi North 13.8 mph - N/A Snow Light Snow
10:55 AM 32.0 °F 23.0 °F 32.0 °F 100% 30.22 in 1.2 mi North 11.5 mph - N/A Snow Light Snow
11:15 AM 32.0 °F 22.1 °F 32.0 °F 100% 30.22 in 2.0 mi North 13.8 mph - N/A Snow Light Snow
11:35 AM 33.8 °F 25.3 °F 32.0 °F 93% 30.22 in 2.5 mi North 11.5 mph - N/A Snow Light Snow
11:55 AM 33.8 °F 24.3 °F 32.0 °F 93% 30.22 in 3.0 mi North 13.8 mph - N/A Snow Light Snow
12:15 PM 33.8 °F 24.3 °F 32.0 °F 93% 30.22 in 3.0 mi North 13.8 mph - N/A Snow Light Snow
12:35 PM 33.8 °F 26.4 °F 32.0 °F 93% 30.22 in 2.0 mi North 9.2 mph - N/A Snow Light Snow
12:55 PM 33.8 °F 26.4 °F 32.0 °F 93% 30.22 in 3.0 mi North 9.2 mph - N/A Snow Light Snow
1:15 PM 33.8 °F 26.4 °F 32.0 °F 93% 30.22 in 3.0 mi North 9.2 mph - N/A Snow Light Snow
1:35 PM 33.8 °F 28.6 °F 32.0 °F 93% 30.21 in 2.5 mi North 5.8 mph - N/A Snow Light Snow
1:55 PM 33.8 °F 28.6 °F 32.0 °F 93% 30.19 in 4.0 mi North 5.8 mph - N/A Snow Light Snow
2:15 PM 33.8 °F 30.8 °F 32.0 °F 93% 30.18 in 4.0 mi NNE 3.5 mph - N/A Snow Light Snow
2:35 PM 33.8 °F 26.4 °F 33.8 °F 100% 30.18 in 10.0 mi North 9.2 mph - N/A   Overcast
2:55 PM 33.8 °F 25.3 °F 33.8 °F 100% 30.18 in 10.0 mi North 11.5 mph - N/A   Overcast
3:15 PM 33.8 °F 25.3 °F 33.8 °F 100% 30.18 in 10.0 mi North 11.5 mph - N/A   Overcast
3:35 PM 33.8 °F 25.3 °F 32.0 °F 93% 30.18 in 10.0 mi North 11.5 mph - N/A   Overcast
3:55 PM 33.8 °F 27.7 °F 33.8 °F 100% 30.17 in 10.0 mi North 6.9 mph - N/A   Overcast
4:15 PM 35.6 °F 29.9 °F 32.0 °F 87% 30.17 in 10.0 mi North 6.9 mph - N/A   Overcast
4:35 PM 35.6 °F 29.2 °F 32.0 °F 87% 30.17 in 10.0 mi North 8.1 mph - N/A   Overcast
4:55 PM 35.6 °F 29.9 °F 32.0 °F 87% 30.18 in 10.0 mi North 6.9 mph - N/A   Overcast
5:15 PM 35.6 °F 32.8 °F 32.0 °F 87% 30.18 in 10.0 mi NNW 3.5 mph - N/A   Overcast
5:35 PM 35.6 °F 31.7 °F 32.0 °F 87% 30.18 in 10.0 mi NNW 4.6 mph - N/A   Mostly Cloudy
5:55 PM 35.6 °F - 32.0 °F 87% 30.19 in 10.0 mi Calm Calm - N/A   Scattered Clouds
6:15 PM 35.6 °F - 32.0 °F 87% 30.19 in 10.0 mi Calm Calm - N/A   Scattered Clouds
6:35 PM 35.6 °F - 32.0 °F 87% 30.18 in 10.0 mi Calm Calm - N/A   Clear
6:55 PM 35.6 °F - 32.0 °F 87% 30.18 in 10.0 mi Calm Calm - N/A   Clear
7:15 PM 33.8 °F 29.6 °F 32.0 °F 93% 30.19 in 10.0 mi West 4.6 mph - N/A   Clear
7:35 PM 33.8 °F 28.6 °F 32.0 °F 93% 30.21 in 10.0 mi West 5.8 mph - N/A   Clear
7:55 PM 33.8 °F 28.6 °F 32.0 °F 93% 30.21 in 10.0 mi West 5.8 mph - N/A   Clear
8:15 PM 33.8 °F 28.6 °F 32.0 °F 93% 30.21 in 10.0 mi SW 5.8 mph - N/A   Clear
8:35 PM 33.8 °F 28.6 °F 32.0 °F 93% 30.21 in 10.0 mi WSW 5.8 mph - N/A   Clear
8:55 PM 32.0 °F 26.4 °F 30.2 °F 93% 30.22 in 10.0 mi West 5.8 mph - N/A   Clear
9:15 PM 32.0 °F 25.6 °F 30.2 °F 93% 30.22 in 10.0 mi West 6.9 mph - N/A   Clear
9:35 PM 32.0 °F 25.6 °F 30.2 °F 93% 30.22 in 10.0 mi West 6.9 mph - N/A   Clear
10:15 PM 32.0 °F 26.4 °F 30.2 °F 93% 30.22 in 10.0 mi West 5.8 mph - N/A   Clear
10:35 PM 32.0 °F 25.6 °F 28.4 °F 87% 30.22 in 10.0 mi West 6.9 mph - N/A   Clear
10:55 PM 30.2 °F 24.3 °F 28.4 °F 93% 30.23 in 10.0 mi West 5.8 mph - N/A   Clear
11:15 PM 30.2 °F 24.3 °F 28.4 °F 93% 30.23 in 10.0 mi WNW 5.8 mph - N/A   Clear
11:55 PM 30.2 °F 23.4 °F 28.4 °F 93% 30.23 in 10.0 mi West 6.9 mph - N/A   Clear